Showing default

JILIN-01-05, 43023

Orbit data source: Space-Track

JILIN-01-05, 43023 is a payload satellite owned by Changguang WJ (CN) in SSO that was launched on Tue, 21 Nov 2017 UTC via a CHANG ZHENG 6 launch vehicle from the Taiyaun Space Center, China (TSC). Payload-class satellites include a variety of spacecraft equipped with specific instruments for various scientific and technological missions. These include communications satellites like Starlink; space stations such as the ISS; scientific satellites like the Hubble; Earth observation satellites from companies like Planet Labs, Umbra, and HawkEye 360; GPS; miniature CubeSats for education and research; and military/defense satellites.

Loading next visibility...
Identifier
43023, 2017-074B
Orbit
SSO
Country
Flag of CNCN / PRC
Related business
Manufacturer
HARB/CIOMP
Mission
Operational Commercial Imaging
Bus & Motor
JL-1, Unknown motor
Mass
95 kg wet, 95 kg dry
Launch date (UTC)
2017-11-21 (8 years ago)
Launch vehicle
CHANG ZHENG 6
Launch site
Taiyaun Space Center, China (TSC)
Object type
Payload
Rocket body
Debris
Shape & HBR
Box + 2 Pan, 0.8 m
Radar Cross Section
2.000 m², Medium (>0.1 m² and < 1m²)

Expand to show TLE details & history
Last TLE update: 5 hours ago

TLE from 5 hours ago
0 JILIN-01-05
1 43023U 17074B   25260.32336440  .00005665  00000-0  20099-3 0  9996
2 43023  97.4822 358.8208 0006993 113.4066 246.7910 15.29449296432232
Epoch: 2025-09-17T07:45Z
TLE epoch observation values (Epoch: 2025-09-17T07:45:38.684Z)
Latitude
-0.00001°
Longitude
-114.09134°
Altitude
482.451 km
Speed
7.623 km/s
True Right ascension
23h 55m 16s
True Declination
0° 00' 00"
Sunlit
Object was in full shadow at epoch
Visualization orbit readout
Latitude
Unknown
Longitude
Unknown
Altitude
Unknown
Speed
Unknown
Apparent Right ascension
Unknown
Apparent Declination
Unknown
Sunlit
N/A
Visualization observer readout
Local Sidereal Time
05:36:14
Azimuth
Unknown
Elevation
Unknown
Doppler factor
Unknown
Orbital elements
Apogee altitude
479.206 km
Perigee altitude
469.622 km
Semi-major axis
6,852.551 km
Eccentricity
0.0007
Inclination
97.4822°
RAAN
358.8208°
Arg. of periapsis
113.4066°
True anomaly
246.71738°
Mean anomaly
246.791°
Eccentric anomaly
246.75419°
Mean motion
3.82617 °/min
Orbital period
94.09 mins
BSTAR
0.00020099
Loading maneuver chart data...
Computing Atmospheric mass density...
Loading historical data...
Loading historical data...
Loading historical data...
Loading historical data...
Loading historical data...
Loading historical data...
Loading historical data...
Other satellites on launch #74 in the year 2017 (2017-11-21 UTC)

Documentation

Showing up to 5 results
|